Location: Newark
(56.0692°N, 115.8617°E)
Time: 12:09:40
(UTC+00:00)

Vanguard 2 Rocket - Pass Details

Date: 28 May 2020
Orbit: 556 x 3325 km, 32.9° (Epoch: 14 July)

Event Time Altitude Azimuth Distance (km) Brightness Sun altitude
Rises 10:02:39 0° 238° (WSW) 4,958 11.4 19.3°
Reaches altitude 10° 10:06:10 10° 227° (SW) 4,349 11.0 18.8°
Maximum altitude 10:16:04 28° 175° (S) 3,996 10.1 17.5°
Drops below altitude 10° 10:29:44 10° 127° (SE) 6,076 10.6 15.6°
Sets 10:35:54 0° 118° (ESE) 7,269 10.9 14.8°
